Погода в Москакасах

Россия / Чувашская Республика     56°02′57″N   46°45′52″E
темп.,
°C
ветер,
м/с
пор.,
м/с
влажн.,
%
обл.,
%
осадки,
мм/ч
давл.,
гПа
погр.,
м
11 апреля, вс
вс1100:00+1с24100100 0.0 1026113
03:00+1с36100100 0.0 1027170
06:000с4698100 0.0 1029250
09:00+2ссз359331 0.0 1030244
12:00+5с2478100 0.0 1031361
15:00+7ссз2374100 0.0 1032317
18:00+4всв1178100 0.0 103310
21:00+3всв2281100 0.0 103413
12 апреля, пн
пн1200:00+2всв3381100 0.0 103523
03:00+2всв4786100 0.0 1036116
06:00+2всв3981100 0.0 1036166
09:00+3в41177100 0.0 1037266
12:00+5в41079100 0.1 1036313
15:00+6в4786100 0.1 1036276
18:00+5в5109472 0.2 1034228
21:00+3вюв4997100 0.2 1034144
13 апреля, вт
вт1300:00+4юв489695 0.0 1033121
03:00+4юв3694100 0.0 103278
06:00+5ююв479191 0.0 103299
09:00+11ююв587660 0.0 1031247
12:00+16ю5761100 0.0 1030741
15:00+17ю565299 0.0 10281069
18:00+13ю366458 0.0 102789
21:00+9ююв49735 0.0 1028126
14 апреля, ср
ср1400:00+8ю497546 0.0 1027129
03:00+7ю47754 0.0 102788
06:00+7ю46744 0.0 102695
09:00+14ю475473 0.0 1025297
12:00+18ююз56415 0.0 1024826
15:00+19ююз563959 0.0 10231080
18:00+15ююз345699 0.0 102264
21:00+12ю4664100 0.0 102282
15 апреля, чт
чт1500:00+10ююз3467100 0.0 102152
03:00+8ююз347388 0.0 102053
06:00+8ююз3572100 0.0 101987
09:00+13юз465623 0.0 1018336
12:00+17юз574599 0.0 1016845
15:00+18юз564193 0.0 10141463
18:00+15юз2358100 0.0 101347
21:00+10ссв4888100 0.0 1013264